When you browse on this site, cookies collect data to enhance your experience and personalize the content and advertising you see.
Visit our Privacy Policy to learn more. By continuing to use the site, you agree to this use of cookies and data.

Hourly Weather Quilpue

Today, 2 July, Thursday

Time Temperature Precipitation Wind Pressure Humidity
00:00 +12°C° 0 mm 2 mps 754 mmHg 89%
01:00 +12°C° 0 mm 2 mps 755 mmHg 89%
02:00 +12°C° 0 mm 2 mps 754 mmHg 89%
03:00 +12°C° 0 mm 2 mps 754 mmHg 89%
04:00 +10°C° 0 mm 2 mps 753 mmHg 89%
05:00 +10°C° 0 mm 2 mps 754 mmHg 89%
06:00 +10°C° 0 mm 2 mps 754 mmHg 89%
07:00 +10°C° 0 mm 2 mps 754 mmHg 90%
08:00 +13°C° 0 mm 2 mps 754 mmHg 83%
09:00 +15°C° 0 mm 2 mps 753 mmHg 76%
10:00 +17°C° 0 mm 2 mps 753 mmHg 69%
11:00 +18°C° 0 mm 3 mps 752 mmHg 66%
12:00 +19°C° 0 mm 3 mps 752 mmHg 64%
13:00 +20°C° 0 mm 3 mps 752 mmHg 61%
14:00 +19°C° 0 mm 3 mps 752 mmHg 67%
15:00 +18°C° 0 mm 3 mps 752 mmHg 72%
16:00 +17°C° 0 mm 3 mps 752 mmHg 78%
17:00 +16°C° 0 mm 3 mps 752 mmHg 82%
18:00 +14°C° 0 mm 2 mps 752 mmHg 86%
19:00 +13°C° 0 mm 2 mps 752 mmHg 91%
20:00 +12°C° 0 mm 2 mps 752 mmHg 90%
21:00 +12°C° 0 mm 2 mps 752 mmHg 90%
22:00 +12°C° 0 mm 2 mps 752 mmHg 90%
23:00 +12°C° 0 mm 2 mps 752 mmHg 89%

Tomorrow, 3 July, Friday

Time Temperature Precipitation Wind Pressure Humidity
00:00 +11°C° 0 mm 1 mps 752 mmHg 89%
01:00 +11°C° 0 mm 1 mps 752 mmHg 89%
02:00 +11°C° 0 mm 1 mps 752 mmHg 89%
03:00 +11°C° 0 mm 1 mps 752 mmHg 89%
04:00 +10°C° 0 mm 1 mps 752 mmHg 88%
05:00 +10°C° 0 mm 1 mps 753 mmHg 89%
06:00 +10°C° 0 mm 1 mps 753 mmHg 89%
07:00 +10°C° 0 mm 1 mps 753 mmHg 89%
08:00 +12°C° 0 mm 1 mps 753 mmHg 80%
09:00 +14°C° 0 mm 1 mps 753 mmHg 71%
10:00 +18°C° 0 mm 1 mps 752 mmHg 62%
11:00 +18°C° 0 mm 1 mps 752 mmHg 58%
12:00 +19°C° 0 mm 1 mps 752 mmHg 54%
13:00 +20°C° 0 mm 1 mps 751 mmHg 49%
14:00 +19°C° 0 mm 1 mps 751 mmHg 56%
15:00 +17°C° 0 mm 2 mps 751 mmHg 63%
16:00 +16°C° 0 mm 2 mps 751 mmHg 69%
17:00 +15°C° 0 mm 1 mps 751 mmHg 75%
18:00 +13°C° 0 mm 1 mps 750 mmHg 81%
19:00 +11°C° 0 mm 0 mps 750 mmHg 87%
20:00 +11°C° 0 mm 0 mps 750 mmHg 88%
21:00 +11°C° 0 mm 0 mps 750 mmHg 88%
22:00 +11°C° 0 mm 0 mps 751 mmHg 88%
23:00 +12°C° 0.1 mm 1 mps 750 mmHg 87%

Day after tomorrow, 4 July, Saturday

Time Temperature Precipitation Wind Pressure Humidity
00:00 +12°C° 0.1 mm 1 mps 750 mmHg 86%
01:00 +13°C° 0.1 mm 1 mps 749 mmHg 85%
02:00 +13°C° 0.5 mm 2 mps 749 mmHg 86%
03:00 +13°C° 0.5 mm 2 mps 749 mmHg 88%
04:00 +13°C° 0.5 mm 2 mps 749 mmHg 90%
05:00 +13°C° 1.2 mm 2 mps 749 mmHg 92%
06:00 +13°C° 1.2 mm 2 mps 749 mmHg 94%
07:00 +13°C° 1.2 mm 1 mps 749 mmHg 96%
08:00 +13°C° 1.4 mm 2 mps 749 mmHg 95%
09:00 +12°C° 1.4 mm 3 mps 749 mmHg 93%
10:00 +13°C° 1.4 mm 3 mps 750 mmHg 92%
11:00 +13°C° 1 mm 4 mps 750 mmHg 88%
12:00 +13°C° 1 mm 4 mps 750 mmHg 85%
13:00 +13°C° 1 mm 5 mps 750 mmHg 81%
14:00 +13°C° 0.7 mm 4 mps 750 mmHg 82%
15:00 +12°C° 0.7 mm 4 mps 751 mmHg 83%
16:00 +11°C° 0.7 mm 3 mps 751 mmHg 84%
17:00 +12°C° 0.4 mm 2 mps 752 mmHg 85%
18:00 +10°C° 0.4 mm 2 mps 752 mmHg 86%
19:00 +10°C° 0.4 mm 2 mps 753 mmHg 87%
20:00 +9°C° 0.1 mm 2 mps 753 mmHg 85%
21:00 +9°C° 0.1 mm 2 mps 754 mmHg 84%
22:00 +9°C° 0.1 mm 2 mps 755 mmHg 82%
23:00 +9°C° 0 mm 2 mps 755 mmHg 81%

5 July, Sunday

Time Temperature Precipitation Wind Pressure Humidity
00:00 +9°C° 0 mm 2 mps 755 mmHg 81%
01:00 +9°C° 0 mm 1 mps 755 mmHg 80%
02:00 +9°C° 0 mm 1 mps 755 mmHg 80%
03:00 +9°C° 0 mm 1 mps 755 mmHg 81%
04:00 +9°C° 0 mm 1 mps 755 mmHg 81%
05:00 +9°C° 0 mm 1 mps 755 mmHg 81%
06:00 +8°C° 0 mm 1 mps 755 mmHg 80%
07:00 +8°C° 0 mm 1 mps 754 mmHg 80%
08:00 +10°C° 0 mm 1 mps 754 mmHg 74%
09:00 +12°C° 0 mm 1 mps 754 mmHg 68%
10:00 +14°C° 0 mm 1 mps 754 mmHg 63%
11:00 +15°C° 0 mm 1 mps 753 mmHg 61%
12:00 +15°C° 0 mm 2 mps 753 mmHg 60%
13:00 +16°C° 0 mm 2 mps 752 mmHg 58%
14:00 +14°C° 0 mm 3 mps 752 mmHg 63%
15:00 +13°C° 0 mm 3 mps 752 mmHg 68%
16:00 +13°C° 0 mm 3 mps 752 mmHg 73%
17:00 +12°C° 0 mm 3 mps 752 mmHg 77%
18:00 +12°C° 0 mm 2 mps 752 mmHg 81%
19:00 +10°C° 0 mm 2 mps 752 mmHg 85%
20:00 +10°C° 0 mm 2 mps 752 mmHg 86%
21:00 +10°C° 0 mm 2 mps 752 mmHg 87%
22:00 +10°C° 0 mm 2 mps 751 mmHg 88%
23:00 +9°C° 0 mm 2 mps 751 mmHg 89%

6 July, Monday

Time Temperature Precipitation Wind Pressure Humidity
00:00 +9°C° 0 mm 2 mps 751 mmHg 89%
01:00 +10°C° 0 mm 1 mps 751 mmHg 90%
02:00 +10°C° 0 mm 1 mps 751 mmHg 88%
03:00 +10°C° 0 mm 1 mps 751 mmHg 87%
04:00 +10°C° 0 mm 1 mps 750 mmHg 85%
05:00 +10°C° 0 mm 1 mps 750 mmHg 86%
06:00 +10°C° 0 mm 1 mps 751 mmHg 86%
07:00 +9°C° 0 mm 2 mps 751 mmHg 86%
08:00 +10°C° 0 mm 2 mps 751 mmHg 82%
09:00 +12°C° 0 mm 2 mps 751 mmHg 77%
10:00 +13°C° 0 mm 1 mps 751 mmHg 72%
11:00 +14°C° 0 mm 1 mps 751 mmHg 67%
12:00 +14°C° 0 mm 1 mps 751 mmHg 61%
13:00 +15°C° 0 mm 1 mps 750 mmHg 55%
14:00 +15°C° 0 mm 2 mps 751 mmHg 60%
15:00 +14°C° 0 mm 2 mps 751 mmHg 65%
16:00 +14°C° 0 mm 2 mps 751 mmHg 70%
17:00 +12°C° 0 mm 2 mps 751 mmHg 76%
18:00 +10°C° 0 mm 2 mps 752 mmHg 83%
19:00 +9°C° 0 mm 1 mps 752 mmHg 89%
20:00 +9°C° 0 mm 1 mps 752 mmHg 89%
21:00 +9°C° 0 mm 1 mps 752 mmHg 89%
22:00 +8°C° 0 mm 1 mps 752 mmHg 90%
23:00 +8°C° 0 mm 1 mps 753 mmHg 89%

7 July, Tuesday

Time Temperature Precipitation Wind Pressure Humidity
00:00 +8°C° 0 mm 1 mps 753 mmHg 89%
01:00 +7°C° 0 mm 0 mps 753 mmHg 89%
02:00 +8°C° 0 mm 1 mps 753 mmHg 89%
03:00 +8°C° 0 mm 1 mps 753 mmHg 90%
04:00 +8°C° 0 mm 1 mps 753 mmHg 91%
05:00 +8°C° 0 mm 1 mps 754 mmHg 91%
06:00 +8°C° 0 mm 1 mps 754 mmHg 91%
07:00 +7°C° 0 mm 2 mps 755 mmHg 91%
08:00 +9°C° 0 mm 2 mps 755 mmHg 84%
09:00 +12°C° 0 mm 2 mps 755 mmHg 77%
10:00 +13°C° 0 mm 2 mps 755 mmHg 71%
11:00 +13°C° 0 mm 3 mps 754 mmHg 70%
12:00 +13°C° 0 mm 3 mps 754 mmHg 68%
13:00 +13°C° 0 mm 4 mps 754 mmHg 67%
14:00 +13°C° 0 mm 3 mps 754 mmHg 71%
15:00 +12°C° 0 mm 3 mps 754 mmHg 74%
16:00 +12°C° 0 mm 3 mps 755 mmHg 77%
17:00 +12°C° 0 mm 2 mps 755 mmHg 81%
18:00 +10°C° 0 mm 2 mps 755 mmHg 86%
19:00 +10°C° 0 mm 1 mps 756 mmHg 90%
20:00 +9°C° 0 mm 1 mps 756 mmHg 90%
21:00 +9°C° 0 mm 1 mps 756 mmHg 89%
22:00 +9°C° 0 mm 1 mps 756 mmHg 89%
23:00 +9°C° 0 mm 1 mps 756 mmHg 88%
Show more